カタログに戻る

FENGYUN 1C DEB

運用中PO
NORAD 32331·DEBRIS·🇨🇳 China

打ち上げ May 10, 1999 から Taiyuan Satellite Launch Center

Loading…

次のパス (今後24時間)

TLE

最新Source: Space-Track

元期: Sep 13, 2026, 18:42 UTC

1 32331U 99025CXY 26256.77970809  .00034821  00000-0  32682-2 0  9996
2 32331  99.1685 270.0171 0010585   3.0169 357.1108 14.93833919646964

AllMySatでFENGYUN 1C DEBをリアルタイム追跡

Download on the App Store